Weather History for Billings, MT

Change the Weather History Date:

Sunday, February 3, 2013

  Actual Average Record
Temperature  
Mean Temperature 42 °F 28 °F  
Max Temperature 54 °F 38 °F 62 °F (1962)
Min Temperature 30 °F 19 °F -26 °F (1989)
Degree Days  
Heating Degree Days 23 37  
Month to date heating degree days 79 111  
Since 1 July heating degree days 3758 4107  
Cooling Degree Days 0 0  
Month to date cooling degree days 0 0  
Year to date cooling degree days 0 0  
Moisture  
Dew Point 19 °F    
Average Humidity 42    
Maximum Humidity 63    
Minimum Humidity 20    
Precipitation  
Precipitation 0.00 in 0.02 in 0.47 in (1986)
Month to date precipitation T 0.05  
Year to date precipitation 0.59 0.53  
Snow  
Snow 0.00 in 0.20 in 3.10 in (1955)
Month to date snowfall T 0.7  
Since 1 July snowfall 27.7 29.0  
Snow Depth 0.00 in    
Sea Level Pressure  
Sea Level Pressure 30.00 in    
Wind  
Wind Speed 17 mph (WSW)    
Max Wind Speed 31 mph    
Max Gust Speed 39 mph    
Visibility 10 miles    
Events      
T = Trace of Precipitation, MM = Missing Value Source: NWS Daily Summary

Daily Weather History Graph

Daily Weather History Graph

Search for Another Location

Airport:

Trip Planner

Search our weather history database for the weather conditions in past years. The results will help you decide how hot, cold, wet, or windy it might be!

Date:

Astronomy

Feb. 03, 2013 Rise Set
Actual Time 7:33 AM MST 5:23 PM MST
Civil Twilight 7:01 AM MST 5:55 PM MST
Nautical Twilight 6:26 AM MST 6:30 PM MST
Astronomical Twilight 5:51 AM MST 7:05 PM MST
Moon 1:05 AM MST (2/3) 11:00 AM MST (2/3)
Length of Visible Light 10h 53m
Length of Day
9h 50m
Waning Gibbous, 48% of the Moon is Illuminated
Feb 3
Waning Gibbous
Feb 10
New
Feb 17
First Quarter
Feb 25
Full
Mar 4
Last Quarter

Hourly Weather History & Observations

Time (MST) Temp. Windchill Dew Point Humidity Pressure Visibility Wind Dir Wind Speed Gust Speed Precip Events Conditions
12:53 AM 30.0 °F 17.2 °F 19.0 °F 64% 30.16 in 10.0 mi WSW 20.7 mph - N/A   Clear
1:53 AM 30.9 °F 19.1 °F 19.9 °F 64% 30.14 in 10.0 mi WSW 18.4 mph - N/A   Clear
2:53 AM 30.0 °F 17.9 °F 19.9 °F 66% 30.13 in 10.0 mi SW 18.4 mph - N/A   Clear
3:53 AM 33.1 °F 20.9 °F 19.9 °F 59% 30.09 in 10.0 mi WSW 21.9 mph 29.9 mph N/A   Clear
4:53 AM 30.9 °F 19.4 °F 19.9 °F 64% 30.07 in 10.0 mi SW 17.3 mph - N/A   Clear
5:53 AM 34.0 °F 21.0 °F 19.0 °F 54% 30.02 in 10.0 mi WSW 26.5 mph 32.2 mph N/A   Clear
6:53 AM 34.0 °F 20.8 °F 19.0 °F 54% 30.00 in 10.0 mi WSW 27.6 mph 33.4 mph N/A   Clear
7:53 AM 34.0 °F 21.0 °F 19.0 °F 54% 29.99 in 10.0 mi WSW 26.5 mph 39.1 mph N/A   Clear
8:53 AM 36.0 °F 29.0 °F 19.0 °F 50% 30.01 in 10.0 mi WSW 9.2 mph - N/A   Clear
9:53 AM 37.9 °F 27.6 °F 19.0 °F 47% 29.99 in 10.0 mi WSW 20.7 mph - N/A   Clear
10:53 AM 42.1 °F 32.1 °F 19.9 °F 41% 30.00 in 10.0 mi WSW 25.3 mph 33.4 mph N/A   Clear
11:53 AM 42.1 °F 33.6 °F 21.0 °F 43% 29.99 in 10.0 mi SW 18.4 mph - N/A   Clear
12:53 PM 42.1 °F 33.1 °F 21.9 °F 45% 29.98 in 10.0 mi WSW 20.7 mph - N/A   Clear
1:53 PM 43.0 °F 37.2 °F 23.0 °F 45% 29.96 in 10.0 mi SW 10.4 mph - N/A   Partly Cloudy
2:53 PM 53.1 °F - 14.0 °F 21% 29.93 in 10.0 mi NW 21.9 mph - N/A   Partly Cloudy
2:56 PM 53.1 °F - 14.0 °F 21% 29.89 in 10.0 mi NW 20.7 mph - N/A   Partly Cloudy
3:53 PM 50.0 °F - 16.0 °F 26% 29.94 in 10.0 mi NNW 16.1 mph - N/A   Partly Cloudy
4:53 PM 46.9 °F - 18.0 °F 32% 29.97 in 10.0 mi NNW 11.5 mph - N/A   Partly Cloudy
5:53 PM 41.0 °F 34.3 °F 18.0 °F 40% 29.98 in 10.0 mi WNW 11.5 mph - N/A   Partly Cloudy
6:53 PM 41.0 °F 34.3 °F 19.0 °F 41% 29.99 in 10.0 mi NW 11.5 mph - N/A   Clear
7:53 PM 39.9 °F 33.9 °F 19.0 °F 43% 29.98 in 10.0 mi WNW 9.2 mph - N/A   Mostly Cloudy
8:53 PM 37.4 °F 29.3 °F 21.2 °F 52% 29.91 in 10.0 mi SW 12.7 mph - N/A   Mostly Cloudy
9:53 PM 37.0 °F 29.3 °F 19.9 °F 50% 29.98 in 10.0 mi SW 11.5 mph - N/A   Overcast
10:53 PM 35.1 °F 25.5 °F 19.9 °F 54% 29.95 in 10.0 mi WSW 15.0 mph - N/A   Mostly Cloudy
11:53 PM 33.1 °F 22.6 °F 19.9 °F 59% 29.95 in 10.0 mi WSW 16.1 mph - N/A   Clear